Bellingham, Washington, United States (98225)
Lat: 48.76N, Lon: 122.49W
Wx Zone: WAZ503
Local Info
Past Weather Observations for Monday, October 27, 2014

NOTE: This archive is for the closest National Weather Service station to Bellingham. Information may differ from the station used for current weather conditions.

Click here for Long-term Archive

Time Weather Temperature Dewpoint Humidity Pressure Winds Precip Visibility
23:53
Overcast
Light Rain
54°F / 12°C 41°F / 5°C 63% 29.89 in
(1012 mb)
SE 13.8 mph
(SE 22 kph)
0.01 in
(0.25 mm)
10SM
22:53
Overcast
Light Rain
54°F / 12°C 43°F / 6°C 67% 29.92 in
(1013 mb)
E 6.9 mph
(E 11 kph)
0.00 in
(0.00 mm)
10SM
21:53
Overcast
Light Rain
54°F / 12°C 43°F / 6°C 67% 29.95 in
(1014 mb)
ESE 9.2 mph
(ESE 15 kph)
0.01 in
(0.25 mm)
10SM
20:53
Overcast
50°F / 10°C 43°F / 6°C 76% 29.95 in
(1014 mb)
NE 4.6 mph
(NE 7 kph)
0.00 in
(0.00 mm)
10SM
19:53
Overcast
Light Rain
50°F / 10°C 43°F / 6°C 76% 29.98 in
(1015 mb)
Calm 0.00 in
(0.00 mm)
10SM
18:53
Overcast
48°F / 9°C 45°F / 7°C 87% 29.98 in
(1015 mb)
Calm - 10SM
17:53
Mostly Cloudy
50°F / 10°C 43°F / 6°C 76% 29.98 in
(1015 mb)
NE 4.6 mph
(NE 7 kph)
- 10SM
16:53
Overcast
52°F / 11°C 45°F / 7°C 77% 30.01 in
(1016 mb)
NE 4.6 mph
(NE 7 kph)
- 10SM
15:53
Overcast
52°F / 11°C 45°F / 7°C 77% 30.04 in
(1017 mb)
NE 4.6 mph
(NE 7 kph)
- 10SM
14:53
Mostly Cloudy
54°F / 12°C 45°F / 7°C 72% 30.06 in
(1018 mb)
N 5.8 mph
(N 9 kph)
- 10SM
13:53
Mostly Cloudy
54°F / 12°C 45°F / 7°C 72% 30.06 in
(1018 mb)
NE 6.9 mph
(NE 11 kph)
- 10SM
12:53
Mostly Cloudy
54°F / 12°C 45°F / 7°C 72% 30.09 in
(1019 mb)
NE 6.9 mph
(NE 11 kph)
- 10SM
11:53
Overcast
54°F / 12°C 45°F / 7°C 72% 30.12 in
(1020 mb)
NE 5.8 mph
(NE 9 kph)
- 10SM
10:53
Mostly Cloudy
52°F / 11°C 45°F / 7°C 77% 30.12 in
(1020 mb)
NNE 4.6 mph
(NNE 7 kph)
- 10SM
09:53
Clear
48°F / 9°C 45°F / 7°C 87% 30.12 in
(1020 mb)
NE 5.8 mph
(NE 9 kph)
- 10SM
08:53
Clear
46°F / 8°C 43°F / 6°C 87% 30.12 in
(1020 mb)
Calm - 10SM
07:53
Clear
45°F / 7°C 41°F / 5°C 87% 30.12 in
(1020 mb)
Calm - 10SM
06:53
Clear
41°F / 5°C 39°F / 4°C 93% 30.12 in
(1020 mb)
Calm 0.01 in
(0.25 mm)
10SM
06:11
Partly Cloudy
39°F / 4°C 37°F / 3°C 93% 30.12 in
(1020 mb)
Calm - 8SM
05:53
Partly Cloudy
39°F / 4°C 37°F / 3°C 93% 30.15 in
(1021 mb)
Calm - 8SM
05:49
Mostly Cloudy
Fog And Mist
39°F / 4°C 37°F / 3°C 93% 30.15 in
(1021 mb)
Calm - 5SM
04:53
Mostly Cloudy
39°F / 4°C 37°F / 3°C 93% 30.15 in
(1021 mb)
Calm - 10SM
04:18
Mostly Cloudy
39°F / 4°C 37°F / 3°C 93% 30.15 in
(1021 mb)
Calm - 10SM
04:11
Mostly Cloudy
Fog And Mist
39°F / 4°C 37°F / 3°C 93% 30.15 in
(1021 mb)
Calm - 2SM
04:02
Partly Cloudy
Fog And Mist
39°F / 4°C 37°F / 3°C 93% 30.15 in
(1021 mb)
Calm - 3/4SM
03:53
Partly Cloudy
Fog And Mist
39°F / 4°C 37°F / 3°C 93% 30.15 in
(1021 mb)
Calm - 2 1/2SM
03:46
Mostly Cloudy
Fog And Mist
39°F / 4°C 37°F / 3°C 93% 30.15 in
(1021 mb)
Calm - 3SM
03:27
Partly Cloudy
Fog And Mist
39°F / 4°C 36°F / 2°C 87% 30.15 in
(1021 mb)
Calm - 1SM
03:15
Obscured
Fog And Mist
39°F / 4°C 37°F / 3°C 93% 30.15 in
(1021 mb)
Calm - 3/4SM
03:11
Partly Cloudy
Fog And Mist
41°F / 5°C 37°F / 3°C 87% 30.15 in
(1021 mb)
Calm - 1 3/4SM
03:08
Partly Cloudy
Fog And Mist
41°F / 5°C 37°F / 3°C 87% 30.15 in
(1021 mb)
Calm - 3SM
02:53
Partly Cloudy
Fog And Mist
41°F / 5°C 37°F / 3°C 87% 30.15 in
(1021 mb)
Calm - 1 1/4SM
02:44
Mostly Cloudy
Fog And Mist
39°F / 4°C 37°F / 3°C 93% 30.15 in
(1021 mb)
Calm - 3/4SM
02:35
Mostly Cloudy
Fog And Mist
41°F / 5°C 39°F / 4°C 93% 30.15 in
(1021 mb)
Calm - 2 1/2SM
02:09
Overcast
Fog And Mist
41°F / 5°C 39°F / 4°C 93% 30.15 in
(1021 mb)
Calm - 3SM
01:59
Overcast
Fog And Mist
41°F / 5°C 39°F / 4°C 93% 30.15 in
(1021 mb)
Calm - 1 3/4SM
01:53
Mostly Cloudy
43°F / 6°C 39°F / 4°C 87% 30.15 in
(1021 mb)
Calm - 9SM
01:45
Mostly Cloudy
Fog And Mist
43°F / 6°C 39°F / 4°C 87% 30.15 in
(1021 mb)
Calm - 3SM
01:13
Mostly Cloudy
Fog And Mist
43°F / 6°C 39°F / 4°C 87% 30.15 in
(1021 mb)
Calm - 1 3/4SM
00:58
Overcast
Fog And Mist
43°F / 6°C 39°F / 4°C 87% 30.12 in
(1020 mb)
Calm - 3SM
00:53
Overcast
Fog And Mist
43°F / 6°C 39°F / 4°C 87% 30.12 in
(1020 mb)
Calm - 1 1/4SM
00:46
Overcast
Fog And Mist
43°F / 6°C 41°F / 5°C 93% 30.12 in
(1020 mb)
Calm - 1 3/4SM
00:12
Overcast
Fog And Mist
43°F / 6°C 39°F / 4°C 87% 30.12 in
(1020 mb)
Calm - 6SM
00:02
Overcast
Fog And Mist
43°F / 6°C 41°F / 5°C 93% 30.12 in
(1020 mb)
Calm - 2SM
Time Weather Temperature Dewpoint Humidity Pressure Winds Precip Visibility


Weather for websites

WeatherForYou.com, LLC is not responsible for any damages or problems caused by this service. Current weather conditions are obtained from the closest station including government and personal stations which may have varying degrees of accuracy. Weather forecasts are derived from the NOAA NDFD. Like all things, this site belongs to Jesus Christ... He just trusts me to maintain it. If you have any questions or comments email webmaster@weatherforyou.com

Copyright © 2014, WeatherForYou.com LLC. All rights reserved.